Torna al catalogo

SL-16 DEB

AttivoLEO
NORAD 22430·DEBRIS·🇷🇺 Russia

Lanciato Dec 25, 1992 da Baikonur Cosmodrome

Loading…

Prossimi Passaggi (prossime 24 ore)

TLE

AggiornatoSource: Space-Track

Epoca: Sep 13, 2026, 20:00 UTC

1 22430U 92093DX  26256.83352093  .00000106  00000-0  10362-3 0  9990
2 22430  71.2364  47.1010 0116307 268.3758 207.4586 13.96135956712848

Traccia SL-16 DEB in tempo reale con AllMySat

Download on the App Store